Location: Newark
(40.4881°N, 5.6117°W)
Time: 09:44:19
(UTC+00:00)

N. Korean satellite - Pass Details

Date: 23 March 2019
Orbit: 457 x 508 km, 97.2° (Epoch: 24 April)

Event Time Altitude Azimuth Distance (km) Brightness Sun altitude
Rises 05:49:15 0° 26° (NNE) 2,528 10.7 -7.0°
Reaches altitude 10° 05:51:37 10° 41° (NE) 1,654 10.1 -6.5°
Maximum altitude 05:54:29 23° 95° (E) 1,075 9.5 -6.0°
Drops below altitude 10° 05:57:23 10° 149° (SSE) 1,667 9.6 -5.4°
Sets 05:59:46 0° 165° (SSE) 2,552 10.4 -5.0°
